Location: Poprad
(49.0500°N, 20.3000°E)
Time: 17:36:23
(UTC+02:00)

ITUPSAT 1 - Pass Details

Date: 29 April 2024
Orbit: 694 x 707 km, 98.5° (Epoch: 20 May)

Event Time Altitude Azimuth Distance (km) Brightness Sun altitude
Rises 21:28:48 0° 29° (NNE) 3,084 ? -13.9°
Reaches altitude 10° 21:31:56 10° 51° (NE) 2,159 ? -14.3°
Maximum altitude 21:34:48 16° 89° (E) 1,787 ? -14.6°
Enters shadow 21:35:14 16° 96° (E) 1,795 ? -14.7°
